Flight Track Log - Related Links

Times and Time Zones

All times are in EDT time to prevent confusion due to time zone crossing. See the N877PM flight status page for this flight to view local times or setup timezone preferences in your user account.

Time Position Orientation Groundspeed Altitude Reporting Facility
EDT Latitude Longitude Course Direction KTS MPH feet Rate Location/Type
Sun 01:32:59 PM 40.7811 -98.8678 76° East 199 229 6,800  Level Minneapolis Center
Sun 01:34:01 PM 40.7956 -98.7889 76° East 211 243 8,400 1,500 Climbing Minneapolis Center
Sun 01:35:03 PM 40.8103 -98.7081 76° East 220 253 9,900 1,403 Climbing Minneapolis Center
Sun 01:36:05 PM 40.8258 -98.6247 76° East 229 264 11,300 1,500 Climbing Minneapolis Center
Sun 01:37:00 PM 40.8298 -98.3730 78° East  Level FlightAware Approximate
Sun 01:37:07 PM 40.8456 -98.5194 76° East 244 281 13,000  Level Minneapolis Center
Sun 01:38:10 PM 40.8622 -98.4294 76° East 249 287 14,400 1,392 Climbing Minneapolis Center
Sun 01:39:12 PM 40.8786 -98.3356 77° East 257 296 15,900 1,355 Climbing Minneapolis Center
Sun 01:40:14 PM 40.8956 -98.2414 77° East 259 298 17,200 1,258 Climbing Minneapolis Center
Sun 01:41:16 PM 40.9139 -98.1436 76° East 270 311 18,500 1,210 Climbing Minneapolis Center
Sun 01:42:18 PM 40.9314 -98.0425 77° East 277 319 19,700 1,306 Climbing Minneapolis Center
Sun 01:43:20 PM 40.9550 -97.9181 76° East 287 330 21,200 1,355 Climbing Minneapolis Center
Sun 01:44:22 PM 40.9731 -97.8136 77° East 289 333 22,500 1,161 Climbing Minneapolis Center
Sun 01:45:24 PM 40.9917 -97.7053 77° East 298 343 23,600 1,065 Climbing Minneapolis Center
Sun 01:46:26 PM 41.0119 -97.5922 77° East 310 357 24,700 1,065 Climbing Minneapolis Center
Sun 01:47:28 PM 41.0325 -97.4756 77° East 319 367 25,800 1,065 Climbing Minneapolis Center
Sun 01:48:30 PM 41.0528 -97.3581 77° East 331 381 26,900 1,248 Climbing Minneapolis Center
Sun 01:49:33 PM 41.0778 -97.2133 77° East 332 382 28,400 1,152 Climbing Minneapolis Center
Sun 01:50:35 PM 41.0986 -97.0911 77° East 334 384 29,300 919 Climbing Minneapolis Center
Sun 01:51:37 PM 41.1203 -96.9656 77° East 344 396 30,300 919 Climbing Minneapolis Center
Sun 01:52:39 PM 41.1414 -96.8403 77° East 345 397 31,200 871 Climbing Minneapolis Center
Sun 01:53:41 PM 41.1636 -96.7117 77° East 353 406 32,100 823 Climbing Minneapolis Center
Sun 01:54:43 PM 41.1844 -96.5822 78° East 357 411 32,900 871 Climbing Minneapolis Center
Sun 01:55:45 PM 41.2125 -96.4269 76° East 361 415 33,900 919 Climbing Minneapolis Center
Sun 01:56:47 PM 41.2325 -96.2900 79° East 363 418 34,800 532 Climbing Minneapolis Center
Sun 01:57:49 PM 41.2544 -96.1567 78° East 364 419 35,000 97 Climbing Minneapolis Center
Sun 01:58:51 PM 41.2778 -96.0147 78° East 384 442 35,000  Level Minneapolis Center
Sun 01:59:53 PM 41.3008 -95.8686 78° East 399 459 35,000  Level Minneapolis Center
Sun 02:00:55 PM 41.3261 -95.7189 77° East 410 472 35,000  Level Minneapolis Center
Sun 02:01:57 PM 41.3500 -95.5581 79° East 413 475 35,000  Level Minneapolis Center
Sun 02:02:59 PM 41.3733 -95.4086 78° East 413 475 35,000  Level Minneapolis Center
Sun 02:04:01 PM 41.3969 -95.2592 78° East 413 475 35,000  Level Minneapolis Center
Sun 02:05:03 PM 41.4194 -95.1097 79° East 413 475 35,000  Level Minneapolis Center
Sun 02:06:05 PM 41.4469 -94.9300 78° East 413 475 35,000  Level Minneapolis Center
Sun 02:07:07 PM 41.4694 -94.7817 79° East 413 475 35,000  Level Minneapolis Center
Sun 02:08:09 PM 41.4911 -94.6311 79° East 413 475 35,000  Level Minneapolis Center
Sun 02:09:11 PM 41.5125 -94.4803 79° East 413 475 35,000 -435 Level Minneapolis Center
Sun 02:10:13 PM 41.5356 -94.3300 78° East 413 475 34,100 -871 Descending Minneapolis Center
Sun 02:11:15 PM 41.5583 -94.1728 79° East 413 475 33,200 -823 Descending Minneapolis Center
Sun 02:12:17 PM 41.5794 -94.0206 79° East 415 478 32,400 -919 Descending Minneapolis Center
Sun 02:13:19 PM 41.6067 -93.8378 79° East 417 480 31,300 -677 Descending Minneapolis Center
Sun 02:14:21 PM 41.6269 -93.6875 80° East 417 480 31,000 -871 Descending Minneapolis Center
Sun 02:15:23 PM 41.6469 -93.5394 80° East 410 472 29,500 -1,887 Descending Minneapolis Center
Sun 02:16:25 PM 41.6678 -93.3897 79° East 410 472 27,100 -2,274 Descending Minneapolis Center
Sun 02:17:27 PM 41.6878 -93.2411 80° East 410 472 24,800 -2,565 Descending Minneapolis Center
Sun 02:18:29 PM 41.7119 -93.0569 80° East 415 478 21,800 -2,710 Descending Minneapolis Center
Sun 02:19:31 PM 41.7328 -92.9017 80° East 420 483 19,200 -2,806 Descending Minneapolis Center
Sun 02:20:33 PM 41.7561 -92.7383 79° East 421 484 16,000 -2,880 Descending Minneapolis Center
Sun 02:21:36 PM 41.7744 -92.5953 80° East 406 467 13,200 -2,722 Descending Minneapolis Center
Sun 02:22:10 PM 41.7833 -92.5075 82° East 401 461 11,600 -1,375 Descending Chicago Center
Sun 02:23:12 PM 41.8008 -92.3700 80° East 387 445 11,000 -1,210 Descending Chicago Center
Sun 02:24:14 PM 41.8194 -92.2600 77° East 330 380 9,100 -1,872 Descending Chicago Center
Sun 02:25:17 PM 41.8336 -92.1631 79° East 285 328 7,100 -1,920 Descending Chicago Center
Sun 02:26:19 PM 41.8550 -92.0519 75° East 268 308 5,100 -1,887 Descending Chicago Center
Sun 02:27:21 PM 41.8686 -91.9586 79° East 265 305 3,200 -1,258 Descending Chicago Center
Sun 02:28:23 PM 41.8853 -91.8894 72° East 235 270 2,500 -387 Descending Chicago Center
Sun 02:29:25 PM 41.8864 -91.8447 88° East 170 196 2,400 -339 Descending Chicago Center
Sun 02:30:27 PM 41.8861 -91.7925 90° East 150 173 1,800 -581 Descending Chicago Center

Login

Don't have an account? Register now (free) for customized features, flight alerts, and more!